Regional Weather Roundup
Issued by NWS

Home | Current Version | Previous Version | Text Only | Print | Product List | Glossary On
Versions: 1 2 3 4 5 6 7 8 9 10 11 12 13 14 15 16 17 18 19 20 21 22 23 24 25 26 27 28 29 30 31 32 33 34 35 36 37 38 39 40 41 42 43 44 45 46 47 48 49 50
000
ASUS43 KDTX 221210
RWRMI
MICHIGAN HOURLY REGIONAL WEATHER ROUNDUP
NATIONAL WEATHER SERVICE DETROIT/PONTIAC MI
800 AM EDT FRI MAY 22 2015

NOTE: "FAIR" INDICATES FEW OR NO CLOUDS BELOW 12,000 FEET WITH NO
SIGNIFICANT WEATHER AND/OR OBSTRUCTION TO VISIBILITY.

MIZ047>049-052>055-059>063-066>070-074>076-081>083-221300-
SOUTHEAST LOWER MICHIGAN

CITY           SKY/WX    TMP DP  RH WIND       PRES   REMARKS
ADRIAN         MOSUNNY   52  32  46 N13       30.13R
6HR MIN TEMP:  50; 6HR MAX TEMP:  53;

ALMA           SUNNY     46  27  47 N9        30.16R
ANN ARBOR      SUNNY     50  31  48 N10       30.12R
BAD AXE        MOSUNNY   44  34  69 N10       30.13R
CARO           SUNNY     46  35  64 N10       30.13R
DETROIT CITY   SUNNY     51  30  44 NW8       30.11R
6HR MIN TEMP:  50; 6HR MAX TEMP:  56;

DETROIT        MOSUNNY   53  33  46 NW8       30.12R
6HR MIN TEMP:  51; 6HR MAX TEMP:  56; 6HR PCP:  0.01;

FLINT          SUNNY     49  27  42 N10       30.15R
6HR MIN TEMP:  42; 6HR MAX TEMP:  57;

GROSSE ILE     MOSUNNY   54  34  47 N7        30.10R
HILLSDALE      MOSUNNY   51  34  53 N5        30.13R
HOWELL         SUNNY     49  28  44 NW5       30.13R
6HR MIN TEMP:  44; 6HR MAX TEMP:  55;


CITY           SKY/WX    TMP DP  RH WIND       PRES   REMARKS
JACKSON        MOSUNNY   50  30  46 N6        30.14R
6HR MIN TEMP:  47; 6HR MAX TEMP:  54; 6HR PCP: TRACE;

LAMBERTVILLE   MOSUNNY   52  36  54 N7        30.13R
LANSING        SUNNY     49  29  46 NW7       30.15R
6HR MIN TEMP:  44; 6HR MAX TEMP:  55;

LAPEER         FAIR      46  29  52 N8        30.12R
MASON          SUNNY     47  32  56 NW5       30.14R
MONROE         MOSUNNY   52  37  58 N6        30.10R
MT. CLEMENS    MOSUNNY   50  35  57 W9        30.08R
6HR MIN TEMP:  43; 6HR MAX TEMP:  57; 6HR PCP: TRACE;

PONTIAC        MOSUNNY   48  28  46 NW15      30.11R
6HR MIN TEMP:  44; 6HR MAX TEMP:  55;

PORT HOPE        N/A     45  37  73 N10       30.11R
6HR MIN TEMP:  43; 6HR MAX TEMP:  50;

PORT HURON     SUNNY     46  36  66 NW7       30.10R
TRI CITIES     SUNNY     46  28  49 N14       30.15R
6HR MIN TEMP:  42; 6HR MAX TEMP:  51;

MIDLAND        FAIR      44  30  57 N7        30.15R
TROY           SUNNY     51  29  42 NW9       30.13R
SAGINAW HB     SUNNY     46  30  53 NW8       30.14R
$$
MIZ043>046-050>051-056>058-064>065-071>073-077>080-221300-
SOUTHWEST LOWER MICHIGAN

CITY           SKY/WX    TMP DP  RH WIND       PRES   REMARKS
BATTLE CREEK   SUNNY     50  28  42 N7        30.15R
6HR MIN TEMP:  46; 6HR MAX TEMP:  54;

BENTON HARBOR  SUNNY     49  45  86 E5        30.14R
6HR MIN TEMP:  42; 6HR MAX TEMP:  56; 6HR PCP:  0.05;

BIG RAPIDS     SUNNY     42  31  66 CALM      30.16R
6HR MIN TEMP:  35; 6HR MAX TEMP:  47;

COLDWATER      SUNNY     49  36  61 N5        30.14R
6HR MIN TEMP:  43; 6HR MAX TEMP:  55;

FREMONT        FAIR      44  30  58 NW3       30.17R
6HR MIN TEMP:  36; 6HR MAX TEMP:  49;

HOLLAND        SUNNY     51  29  42 E6        30.17R
6HR MIN TEMP:  43; 6HR MAX TEMP:  52;

GRAND RAPIDS   SUNNY     50  30  46 NE5       30.16R
6HR MIN TEMP:  45; 6HR MAX TEMP:  53;

IONIA          FAIR      49  26  40 N5        30.15R
KALAMAZOO      MOSUNNY   52  27  38 NE5       30.15R
6HR MIN TEMP:  49; 6HR MAX TEMP:  59; 6HR PCP:  0.01;

LUDINGTON      SUNNY     43  34  72 N3        30.18R
6HR MIN TEMP:  31; 6HR MAX TEMP:  43;

MARSHALL       SUNNY     50  29  45 CALM      30.14R
MOUNT PLEASANT SUNNY     45  27  50 N6        30.16R
6HR MIN TEMP:  38; 6HR MAX TEMP:  48;

MUSKEGON       SUNNY     50  32  50 N5        30.18R
6HR MIN TEMP:  42; 6HR MAX TEMP:  52;

SOUTH HAVEN    SUNNY     49  37  61 E3        30.15R
$$
MIZ016>042-221300-
NORTHERN LOWER MICHIGAN

CITY           SKY/WX    TMP DP  RH WIND       PRES   REMARKS
ALPENA         SUNNY     42  31  64 NW6       30.15R
6HR MIN TEMP:  33; 6HR MAX TEMP:  42;

BEAVER ISLAND  SUNNY     41  33  71 N5        30.19R
6HR MIN TEMP:  28; 6HR MAX TEMP:  41;

BELLAIRE       SUNNY     35  31  86 CALM      30.19R
6HR MIN TEMP:  28; 6HR MAX TEMP:  35;

CADILLAC       SUNNY     42  29  59 CALM      30.15R
CHARLEVOIX     SUNNY     42  37  83 N5        30.21R
6HR MIN TEMP:  35; 6HR MAX TEMP:  42;

FRANKFORT      SUNNY     40  31  69 CALM      30.19R
GAYLORD        SUNNY     41  29  62 CALM      30.15R
6HR MIN TEMP:  28; 6HR MAX TEMP:  41;

GRAYLING       SUNNY     37  27  65 CALM      30.16R
HARBOR SPRINGS SUNNY     39  33  79 CALM      30.18R
HOUGHTON LAKE  SUNNY     43  28  55 NE5       30.16R
6HR MIN TEMP:  35; 6HR MAX TEMP:  43;

MANISTEE       SUNNY     36  30  80 CALM      30.19R
OSCODA         SUNNY     44  32  62 N5        30.13R
PELLSTON       SUNNY     40  31  70 NW3       30.18R
6HR MIN TEMP:  24; 6HR MAX TEMP:  40;

ROGERS CITY    SUNNY     43  33  68 NW8       30.17R
TRAVERSE CITY  SUNNY     41  33  73 CALM      30.18R
6HR MIN TEMP:  31; 6HR MAX TEMP:  41;

$$
MIZ007>008-015-221300-
EASTERN UPPER MICHIGAN

CITY           SKY/WX    TMP DP  RH WIND       PRES   REMARKS
KINROSS        SUNNY     37  23  56 N8        30.17R WCI  31
6HR MIN TEMP:  32; 6HR MAX TEMP:  37;

MACKINAC ISLAN SUNNY     39  28  65 N6        30.17R WCI  35
NEWBERRY       SUNNY     36  27  68 N9        30.19R WCI  29
S. S. MARIE    SUNNY     38  21  50 N7        30.17R WCI  33
6HR MIN TEMP:  32; 6HR MAX TEMP:  41;

MUNISING         N/A     36  29  75 CALM      30.21R
6HR MIN TEMP:  30; 6HR MAX TEMP:  36;

$$
MIZ004>006-011>014-085-221300-
CENTRAL UPPER MICHIGAN

CITY           SKY/WX    TMP DP  RH WIND       PRES   REMARKS
MANISTIQUE     SUNNY     37  28  68 N6        30.20R WCI  33
6HR MIN TEMP:  29; 6HR MAX TEMP:  37;

ESCANABA       SUNNY     39  25  56 N5        30.20R
6HR MIN TEMP:  30; 6HR MAX TEMP:  39;

MENOMINEE      SUNNY     39  27  60 N5        30.20R
6HR MIN TEMP:  32; 6HR MAX TEMP:  39;

SAWYER-GWINN   SUNNY     36  28  75 CALM      30.19R
$$
MIZ001>003-009>011-084-221300-
WESTERN UPPER MICHIGAN

CITY           SKY/WX    TMP DP  RH WIND       PRES   REMARKS
IRON MOUNTAIN  SUNNY     37  28  70 CALM      30.19R
6HR MIN TEMP:  27; 6HR MAX TEMP:  37;

HOUGHTON       SUNNY     39  30  70 E7        30.19R WCI  34
6HR MIN TEMP:  32; 6HR MAX TEMP:  40;

COPPER HARBOR    N/A     40  29  64 VRB5      30.21R
6HR MIN TEMP:  32; 6HR MAX TEMP:  41;

IRONWOOD       SUNNY     37  34  87 CALM      30.17R
6HR MIN TEMP:  28; 6HR MAX TEMP:  37;

$$

ABBREVIATIONS USED IN REMARKS
   TC - TEMPERATURE IN CELSIUS
  WCI - WIND CHILL INDEX
   HX - HEAT INDEX
  VSB - VISIBILITY




USA.gov is the U.S. government's official web portal to all federal, state and local government web resources and services.